Jackson, KY

5:57 PM EDT on August 25, 2016 (GMT -0400)
Carroll

Weather History for KJKL - March, 2013

Change the Weather History Date:

Tuesday, March 26, 2013

  Actual Average Record
Temperature  
Mean Temperature 34 °F 51 °F  
Max Temperature 38 °F 61 °F 81 °F (2007)
Min Temperature 30 °F 40 °F 20 °F (2014)
Degree Days  
Heating Degree Days 31 15  
Month to date heating degree days 682 485  
Since 1 July heating degree days 3908 3785  
Cooling Degree Days 0 0  
Month to date cooling degree days 0 0  
Year to date cooling degree days 0 0  
Moisture  
Dew Point 29 °F    
Average Humidity 84    
Maximum Humidity 92    
Minimum Humidity 75    
Precipitation  
Precipitation 0.07 in 0.13 in 0.80 in (2002)
Month to date precipitation 4.46 3.46  
Year to date precipitation 12.10 10.82  
Snow  
Snow 1.20 in 0.10 in 1.20 in (2013)
Month to date snowfall 10.7 2.6  
Since 1 July snowfall 20.0 22.2  
Snow Depth 1.00 in    
Sea Level Pressure  
Sea Level Pressure 30.08 in    
Wind  
Wind Speed 6 mph (West)    
Max Wind Speed 13 mph    
Max Gust Speed 21 mph    
Visibility 6 miles    
Events Fog , Snow    
T = Trace of Precipitation, MM = Missing Value Source: NWS Daily Summary

Daily Weather History Graph

Daily Weather History Graph

Search for Another Location

Airport or City:

Trip Planner

Search our weather history database for the weather conditions in past years. The results will help you decide how hot, cold, wet, or windy it might be!

Date:

Astronomy

Mar. 26, 2013 Rise Set
Actual Time 7:27 AM EDT 7:50 PM EDT
Civil Twilight 7:01 AM EDT 8:17 PM EDT
Nautical Twilight 6:30 AM EDT 8:47 PM EDT
Astronomical Twilight 5:59 AM EDT 9:19 PM EDT
Moon 7:26 PM EDT (3/26) 6:42 AM EDT (3/26)
Length of Visible Light 13h 15m
Length of Day
12h 23m
Waxing Gibbous, 99% of the Moon is Illuminated
Mar 26
Waxing Gibbous
Mar 27
Full
Apr 3
Last Quarter
Apr 10
New
Apr 18
First Quarter

Hourly Weather History & Observations

Time (EDT) Temp. Windchill Dew Point Humidity Pressure Visibility Wind Dir Wind Speed Gust Speed Precip Events Conditions
12:53 AM 30.0 °F 23.2 °F 28.0 °F 92% 29.96 in 3.0 mi Variable 6.9 mph - 0.00 in Snow Light Snow
1:53 AM 30.0 °F 23.2 °F 28.0 °F 92% 29.97 in 4.0 mi WSW 6.9 mph - 0.00 in Snow Light Snow
2:35 AM 30.2 °F 21.9 °F 28.4 °F 93% 29.94 in 3.0 mi West 9.2 mph - 0.01 in Snow Light Snow
2:53 AM 30.0 °F 22.4 °F 28.0 °F 92% 29.98 in 2.0 mi West 8.1 mph - 0.01 in Snow Light Snow
3:01 AM 30.2 °F 22.6 °F 28.4 °F 93% 29.94 in 1.5 mi WSW 8.1 mph - 0.01 in Snow Light Snow
3:15 AM 30.2 °F 23.4 °F 28.4 °F 93% 29.95 in 2.0 mi WSW 6.9 mph - 0.01 in Snow Light Snow
3:53 AM 30.0 °F 24.1 °F 28.0 °F 92% 29.98 in 1.8 mi Variable 5.8 mph - 0.01 in Snow Light Snow
4:01 AM 30.2 °F 24.3 °F 28.4 °F 93% 29.95 in 2.0 mi Variable 5.8 mph - 0.01 in Snow Light Snow
4:46 AM 30.2 °F 22.6 °F 28.4 °F 93% 29.95 in 3.0 mi West 8.1 mph - 0.02 in Snow Light Snow
4:53 AM 30.0 °F 23.2 °F 28.0 °F 92% 29.99 in 3.0 mi West 6.9 mph - 0.02 in Snow Light Snow
5:07 AM 30.2 °F 25.4 °F 28.4 °F 93% 29.95 in 2.5 mi Variable 4.6 mph - 0.00 in Snow Light Snow
5:28 AM 30.2 °F 24.3 °F 28.4 °F 93% 29.96 in 3.0 mi Variable 5.8 mph - 0.00 in Snow Light Snow
5:53 AM 30.0 °F 23.2 °F 28.0 °F 92% 30.00 in 3.0 mi WNW 6.9 mph - 0.00 in Snow Light Snow
6:05 AM 30.2 °F 22.6 °F 28.4 °F 93% 29.96 in 2.5 mi West 8.1 mph - 0.00 in Snow Light Snow
6:53 AM 30.0 °F 24.1 °F 28.0 °F 92% 30.01 in 2.5 mi West 5.8 mph - 0.01 in Snow Light Snow
7:10 AM 30.2 °F 25.4 °F 28.4 °F 93% 29.98 in 3.0 mi Variable 4.6 mph - N/A Snow Light Snow
7:53 AM 30.0 °F 24.1 °F 28.0 °F 92% 30.03 in 1.5 mi WNW 5.8 mph - 0.00 in Snow Light Snow
8:11 AM 30.2 °F 25.4 °F 28.4 °F 93% 30.00 in 2.0 mi West 4.6 mph - 0.00 in Snow Light Snow
8:17 AM 30.2 °F 24.3 °F 28.4 °F 93% 30.01 in 3.0 mi WNW 5.8 mph - 0.00 in Snow Light Snow
8:48 AM 30.2 °F 23.4 °F 28.4 °F 93% 30.01 in 7.0 mi West 6.9 mph - 0.00 in   Overcast
8:53 AM 30.9 °F 25.2 °F 28.0 °F 89% 30.05 in 6.0 mi West 5.8 mph - 0.00 in Snow Light Snow
9:53 AM 30.9 °F 25.2 °F 28.0 °F 89% 30.08 in 10.0 mi WNW 5.8 mph - 0.00 in   Overcast
10:36 AM 30.2 °F 25.4 °F 28.4 °F 93% 30.06 in 10.0 mi WNW 4.6 mph - N/A   Overcast
10:53 AM 32.0 °F 26.4 °F 28.0 °F 85% 30.10 in 10.0 mi Variable 5.8 mph - N/A   Overcast
11:30 AM 32.0 °F 27.5 °F 28.4 °F 87% 30.08 in 10.0 mi Variable 4.6 mph - N/A   Overcast
11:41 AM 32.0 °F 25.6 °F 28.4 °F 87% 30.09 in 10.0 mi West 6.9 mph - N/A   Overcast
11:53 AM 32.0 °F 27.5 °F 28.0 °F 85% 30.12 in 10.0 mi Variable 4.6 mph - N/A   Overcast
12:53 PM 33.1 °F 27.7 °F 28.0 °F 82% 30.13 in 10.0 mi West 5.8 mph - N/A   Overcast
1:53 PM 33.1 °F 28.7 °F 28.9 °F 85% 30.14 in 10.0 mi Variable 4.6 mph - 0.00 in   Overcast
2:53 PM 34.0 °F 28.0 °F 30.0 °F 85% 30.14 in 10.0 mi Variable 6.9 mph - 0.00 in   Overcast
3:11 PM 37.4 °F 32.1 °F 30.2 °F 75% 30.11 in 9.0 mi Variable 6.9 mph - 0.00 in   Mostly Cloudy
3:22 PM 37.4 °F 33.8 °F 30.2 °F 75% 30.11 in 10.0 mi Variable 4.6 mph - 0.00 in   Overcast
3:29 PM 35.6 °F 30.7 °F 28.4 °F 75% 30.11 in 10.0 mi Variable 5.8 mph - 0.00 in   Mostly Cloudy
3:53 PM 36.0 °F 30.3 °F 28.9 °F 76% 30.14 in 9.0 mi West 6.9 mph - 0.00 in   Overcast
4:00 PM 35.6 °F 29.2 °F 28.4 °F 75% 30.11 in 10.0 mi West 8.1 mph - N/A   Overcast
4:32 PM 35.6 °F 29.2 °F 28.4 °F 75% 30.11 in 3.0 mi WNW 8.1 mph - 0.00 in Snow Light Snow
4:35 PM 33.8 °F 26.4 °F 28.4 °F 81% 30.11 in 2.5 mi WNW 9.2 mph - 0.00 in Snow Light Snow
4:39 PM 33.8 °F 26.4 °F 28.4 °F 81% 30.12 in 1.8 mi WNW 9.2 mph - 0.00 in Snow Light Snow
4:43 PM 33.8 °F 27.7 °F 28.4 °F 81% 30.12 in 1.0 mi NW 6.9 mph - 0.00 in Snow Light Snow
4:50 PM 32.0 °F 25.6 °F 30.2 °F 93% 30.12 in 0.5 mi Variable 6.9 mph - 0.01 in Fog , Snow Snow
4:53 PM 33.1 °F 27.7 °F 30.0 °F 89% 30.15 in 0.8 mi Variable 5.8 mph - 0.01 in Snow Light Snow
4:56 PM 33.8 °F 26.4 °F 30.2 °F 87% 30.12 in 1.8 mi West 9.2 mph - 0.00 in Snow Light Snow
5:00 PM 33.8 °F 29.6 °F 30.2 °F 87% 30.12 in 6.0 mi Variable 4.6 mph - 0.01 in Snow Light Snow
5:31 PM 35.6 °F 29.9 °F 30.2 °F 81% 30.13 in 10.0 mi WNW 6.9 mph - 0.01 in   Overcast
5:53 PM 35.1 °F 31.0 °F 28.9 °F 78% 30.16 in 9.0 mi Variable 4.6 mph - 0.01 in Snow Light Snow
6:05 PM 33.8 °F 27.7 °F 30.2 °F 87% 30.13 in 2.5 mi West 6.9 mph - 0.00 in Snow Light Snow
6:09 PM 35.6 °F 30.7 °F 30.2 °F 81% 30.13 in 3.0 mi Variable 5.8 mph - 0.00 in Snow Light Snow
6:23 PM 35.6 °F 29.2 °F 30.2 °F 81% 30.14 in 10.0 mi WNW 8.1 mph - 0.00 in   Overcast
6:44 PM 33.8 °F 25.3 °F 28.4 °F 81% 30.15 in 1.0 mi WNW 11.5 mph 18.4 mph 0.00 in Snow Light Snow
6:53 PM 33.1 °F 28.7 °F 30.0 °F 89% 30.18 in 1.2 mi WNW 4.6 mph - 0.00 in Snow Light Snow
6:55 PM 33.8 °F 28.6 °F 30.2 °F 87% 30.15 in 2.5 mi West 5.8 mph - 0.00 in Snow Light Snow
7:02 PM 33.8 °F 29.6 °F 28.4 °F 81% 30.15 in 8.0 mi WNW 4.6 mph - 0.00 in   Overcast
7:53 PM 33.1 °F 27.7 °F 28.9 °F 85% 30.20 in 10.0 mi Variable 5.8 mph - 0.00 in   Overcast
8:53 PM 32.0 °F 24.2 °F 28.0 °F 85% 30.22 in 8.0 mi West 9.2 mph - 0.00 in Snow Light Snow
9:06 PM 32.0 °F 24.8 °F 28.4 °F 87% 30.19 in 5.0 mi West 8.1 mph - 0.00 in Snow Light Snow
9:53 PM 32.0 °F 27.5 °F 28.0 °F 85% 30.25 in 10.0 mi Variable 4.6 mph - 0.00 in   Overcast
10:53 PM 32.0 °F 27.5 °F 28.0 °F 85% 30.26 in 10.0 mi WSW 4.6 mph - N/A   Overcast
11:53 PM 32.0 °F 28.7 °F 27.0 °F 82% 30.26 in 10.0 mi WSW 3.5 mph - N/A   Overcast